Powrót do katalogu

FENGYUN 1C DEB

LostPO
NORAD 37698·DEBRIS·🇨🇳 China

Wystrzelony May 10, 1999 z Taiyuan Satellite Launch Center

Loading…

Następne Przeloty (najbliższe 24 godziny)

TLE

NieaktualneSource: Space-Track

Epoka: Mar 3, 2024, 19:27 UTC

1 37698U 99025ELP 24063.81058080  .00002828  00000-0  24023-2 0  9996
2 37698  97.9818  50.3903 0357266 104.7602  15.3127 13.62350411789128

Śledź FENGYUN 1C DEB w czasie rzeczywistym z AllMySat

Download on the App Store